Regional Weather Roundup
Issued by NWS

Home | Current Version | Previous Version | Graphics & Text | Print | Product List | Glossary On
Versions: 1 2 3 4 5 6 7 8 9 10 11 12 13 14 15 16 17 18 19 20 21 22 23 24 25 26 27 28 29 30 31 32 33 34 35 36 37 38 39 40 41 42 43 44 45 46 47 48 49 50
000
ASUS43 KBIS 040110
RWRND

NORTH DAKOTA REGIONAL WEATHER ROUNDUP
NATIONAL WEATHER SERVICE BISMARCK ND
800 PM CDT SUN MAY 03 2015

NOTE: "FAIR" INDICATES FEW OR NO CLOUDS BELOW 12,000 FEET WITH NO
SIGNIFICANT WEATHER AND/OR OBSTRUCTIONS TO VISIBILITY.


NDZ001>003-009>011-017-040200-
NORTHWEST NORTH DAKOTA

CITY           SKY/WX    TMP DP  RH WIND       PRES   REMARKS
WILLISTON      SUNNY     61  19  19 N12       30.04R
MINOT          CLEAR     59  23  25 NW13      30.01R
MINOT AFB      CLEAR     62  25  23 N10       30.00S
$$

NDZ018>021-031>035-040>046-040200-
SOUTHWEST NORTH DAKOTA

CITY           SKY/WX    TMP DP  RH WIND       PRES   REMARKS
BISMARCK       CLEAR     62  21  20 NW13      30.02S
DICKINSON      MOCLDY    57  26  30 N7        30.03R
GARRISON         N/A     62  23  22 NW16      30.01R
HETTINGER ARPT CLEAR     60  26  27 N8        30.04R
$$

NDZ004>008-012>016-024-026-027-054-040200-
NORTHEAST NORTH DAKOTA

CITY           SKY/WX    TMP DP  RH WIND       PRES   REMARKS
GRAND FORKS    PTCLDY    63  28  26 NW8       29.94R
GRND FRKS AFB  PTCLDY    64  24  22 N14       29.94R
DEVILS LAKE    PTCLDY    59  25  27 NW12      29.97S
$$

NDZ022-023-025-028>030-036>039-047>053-040200-
SOUTHEAST NORTH DAKOTA

CITY           SKY/WX    TMP DP  RH WIND       PRES   REMARKS
FARGO          MOCLDY    65  23  20 NW12      29.93R
JAMESTOWN      PTCLDY    62  22  21 NW16      29.98R
$$



USA.gov is the U.S. government's official web portal to all federal, state and local government web resources and services.